Regional Weather Roundup
Issued by NWS Newport/Morehead, NC

Current Version | Previous Version | Graphics & Text | Print | Product List | Glossary Off
Versions: 1 2 3 4 5 6 7 8 9 10 11 12 13 14 15 16 17 18 19 20 21 22 23 24 25 26 27 28 29 30 31 32 33 34 35 36 37 38 39 40 41 42 43 44 45 46 47 48 49 50

000
ASUS42 KMHX 051825
RWRMHX
WEATHER ROUNDUP FOR EASTERN NORTH CAROLINA
NATIONAL WEATHER SERVICE NEWPORT/MOREHEAD CITY NC
200 PM EDT SUN JUL 05 2015

NOTE: "FAIR" INDICATES FEW OR NO CLOUDS BELOW 12,000 FEET
WITH NO SIGNIFICANT WEATHER AND/OR OBSTRUCTIONS TO VISIBILITY

NCZ015>017-031-032-045>047-102-103-051900-
NORTH COAST

CITY           SKY/WX    TMP DP  RH WIND       PRES   REMARKS
EDENTON          N/A     86  75  68 S8        30.10F
ELIZABETH CITY MOSUNNY   86  73  65 S8        30.10F
KITTY HAWK     PTCLDY    91  72  55 CALM      30.11F
MANTEO         PTSUNNY   85  73  68 CALM      30.12F

$$

NCZ045>047-081-094-103-104-051900-
CENTRAL COAST

CITY           SKY/WX    TMP DP  RH WIND       PRES   REMARKS
FRISCO         MOSUNNY   84  74  71 SW8       30.15F
SWANQUARTER      N/A     88 N/A N/A S10       30.09S

$$

NCZ095-097-098-100-101-051900-
SOUTHERN COAST

CITY           SKY/WX    TMP DP  RH WIND       PRES   REMARKS
BEAUFORT       MOSUNNY   84  74  71 SW15G22   30.14F
CEDAR ISLAND     N/A     90 N/A N/A S13G18    30.18S
JACKSONVILLE   SUNNY     89  70  53 S9        30.12F
PINEY ISLAND   PTCLDY   N/A N/A N/A SW9       30.13F
WILMINGTON     MOSUNNY   90  70  51 SE6       30.12F


$$

NCZ011>013-027>030-043-044-078>080-089-090>093-098-051900-
COASTAL PLAIN

CITY           SKY/WX    TMP DP  RH WIND       PRES   REMARKS
AHOSKIE        MOSUNNY  N/A N/A N/A CALM      30.10F
CLINTON        MOSUNNY   90  72  55 SW7       30.11F
ELIZABETHTOWN  MOSUNNY   88  69  52 S6        30.12F
GOLDSBORO      MOSUNNY   89  71  54 VRB6      30.09F
GREENVILLE     MOSUNNY   88  72  58 W6        30.12F
HAVELOCK       MOSUNNY   89  69  51 S12       30.13F
KENANSVILLE    MOSUNNY   88  68  51 SW6       30.13S
KINSTON        SUNNY     90  70  51 S6        30.12F
NEW BERN       SUNNY     90  70  51 SW7       30.13F
RICHLANDS      MOSUNNY   91  68  46 S8        30.12S
ROCKY MOUNT    MOSUNNY   89  72  56 S9        30.10F
WASHINGTON     SUNNY     87  72  61 SE3       30.11F
WHITEVILLE     MOSUNNY   89  70  53 S9        30.12S

$$

AMZ130-135-150-152-154-156-158-170-250-252-270-ANZ085-086-088-633-658-670-051900-
MARINE OBSERVATIONS

STATION/POSITION TIME  TEMP    WIND        PRES    WAVE   SWELL
                       AIR SEA DIR/SP/G            HT/PER HT/PER
                 (UTC) (F)     (DEG/KT/KT) (MB)    (FT/S) (FT/S)
CHESAPEAKE LIGHT 1800   76     100/ 10/ 12 1020.9
64 E VA BEACH    1750   77 78   90/  6/  6 1020.1    4/ 6   3/ 6
DUCK             1800   83 78   90/  6/  8   N/A
2 E DUCK         1711      80                N/A     2/14   2/14
OREGON INLET     1800   83 79  160/  7/  8 1020.2
13E OREGON INLT  1800      80                N/A     3/ 6
HATTERAS CG      1800   82 80  200/ 10/ 13 1020.5
DIAMOND BUOY     1750   81 81  220/ 14/ 16 1020.8    3/ 5   2/14
CAPE LOOKOUT     1800   82     200/ 11/ 15 1020.6
BEAUFORT LAB     1800   82 80  210/ 10/ 14 1020.0
30 SE NEW RVR IN NOT AVBL
27 SE WRIGHTSVLE 1800      80  220/ 10/ 12   N/A
5 SE WRIGHTSVLE  1708   80 79  200/ 12/ 16 1020.7
225 S CAPE HAT   1750   80 80  210/ 10/ 12 1023.7    4/ 9   3/ 9
41 SE CHARLESTON 1750   82 83  200/  8/ 10 1021.0    3/ 8   2/ 8

$$



USA.gov is the U.S. government's official web portal to all federal, state and local government web resources and services.